Shaw Air Force Base
KSSC : now visible

Airfield :











YOU CAN JOIN US ON...

 
LOGIN :

Register | Disclaimer

   EN    FR    IT 

 









Legend :    VFR   Marginal VFR   IFR   Intensive IFR   Very Intensive IFR
Visi :
Ceiling :
>= 8 km
>= 3000ft
5 to 8 km
1000 to 3000 ft
1500m to 5 km
500 to 1000 ft
800 to 1500m
200 to 500 ft
< 800m
< 200 ft
Symbols :   Thunderstorms  Fog  Heavy snow  Heavy precipitations  Wind > 20 kt






- Airport Elevation : 241 ft


KSSC - Shaw Air Force Base

CURRENT METAR :
  • 230156Z AUTO 00000KT 10SM CLR 09/M01 A3014 RMK AO2 SLP209 T00911013 $

EXPIRED METARs :
  • 230056Z AUTO 00000KT 10SM CLR 11/M02 A3012 RMK AO2 SLP202 T01061021 $
  • 222356Z AUTO 24006KT 10SM CLR 14/M04 A3011 RMK AO2 SLP198 T01371040 10181 20137 50003 $

TAF TAF KSSC
Valid from the 22 at 23:00 until the 24 at 05:00 UTC


222300Z 2223/2405 26009KT 9999 SKC QNH3011INS
BECMG 2301/2302 VRB06KT 9999 SKC QNH3012INS
BECMG 2316/2317 22009KT 9999 SCT080 SCT150 BKN200 QNH3013INS
BECMG 2323/2324 16006KT 9999 SCT060 SCT100 QNH3013INS TX21/2320Z TN03/2311Z LAST NO AMDS AFT 2223 NEXT 2307
KZJX FIR / North America



MET'MAP, your aeronautical weather chart ! - Copyright ORBIFLY December 2007 - Disclaimer

ORBIFLY MET'MAP TEAM :

Programming & Development : Alexandra Zaïnal
Concept & original design : Baudouin d'Aumeries
Assistance for programming : Marc-Olivier Méhu
Technical & hardware support : Manuel Goepfert

Contact : metmap@orbifly.com




SOURCES & CREDITS :

   NOAA       Earth
Advisory